Stations météo

Publicité
Gourette, France (7775): Température de l'air & dewpoint: 17.04.2019 04:00:00 - 23.04.2019 04:00:00 (CEST)Gourette, France (7775): Vitesse du vent & gusts: 17.04.2019 04:00:00 - 23.04.2019 04:00:00 (CEST)Gourette, France (7775): Direction du vent: 17.04.2019 04:00:00 - 23.04.2019 04:00:00 (CEST)Gourette, France (7775): reduced air pressure: 17.04.2019 04:00:00 - 23.04.2019 04:00:00 (CEST)Gourette, France (7775): visibility: 17.04.2019 04:00:00 - 23.04.2019 04:00:00 (CEST)Gourette, France (7775): Quantités de précipitations: 17.04.2019 04:00:00 - 23.04.2019 04:00:00 (CEST)
Date & Time tt [°C] td [°C] ff [km/h] ff [knt] fx [km/h] fx [knt] dd ppp [hPa] vv [km] rr [mm]
23.04.2019 04:00:00 14,9 14,6 13 7 31 17 SSE 999,9 - 0,2
23.04.2019 03:00:00 14,8 14,5 18 10 46 25 SE 1000,3 - 0,2
23.04.2019 02:00:00 14,8 14,2 24 13 54 29 SE 1000,9 - 0,0
23.04.2019 01:00:00 14,7 14,4 31 17 58 31 ESE 1001,6 - 0,2
23.04.2019 00:00:00 14,5 14,3 29 16 42 23 ESE 1002,3 - 0,6
22.04.2019 23:00:00 14,5 14,3 24 13 40 22 E 1003,2 - 3,2
22.04.2019 22:00:00 14,6 14,4 13 7 34 18 E 1003,7 - 1,2
22.04.2019 21:00:00 14,7 14,5 25 14 48 26 ESE 1004,4 - 3,7
22.04.2019 20:00:00 14,6 14,1 23 13 46 25 E 1003,8 10 0,6
22.04.2019 19:00:00 14,8 13,8 16 9 44 24 ENE 1003,4 - 1,8
22.04.2019 18:00:00 16,9 11,6 9 5 19 10 ESE 1005,4 - 0,0
22.04.2019 17:00:00 18,1 10,7 8 5 16 9 NE 1005,0 10 0,0
22.04.2019 16:00:00 18,6 9,9 4 2 16 8 NE 1005,2 - 0,0
22.04.2019 15:00:00 20,1 8,4 4 2 15 8 SE 1005,8 - 0,0
22.04.2019 14:00:00 19,3 9,5 7 4 18 10 ENE 1006,5 - 0,0
22.04.2019 13:00:00 19,8 7,2 6 4 14 8 S 1006,8 - 0,0
22.04.2019 12:00:00 18,6 5,8 7 4 35 19 S 1007,2 - 0,0
22.04.2019 11:00:00 19,6 5,3 22 12 42 23 S 1008,2 10 0,0
22.04.2019 10:00:00 19,0 6,1 15 8 32 18 SW 1007,9 - 0,0
22.04.2019 09:00:00 17,7 6,8 21 12 29 16 SW 1008,3 - 0,0
22.04.2019 08:00:00 15,5 7,0 18 10 27 15 SW 1009,1 - 0,0
22.04.2019 07:00:00 14,2 7,3 16 9 26 14 SW 1009,6 - 0,0
22.04.2019 06:00:00 14,6 7,4 19 10 27 15 SW 1009,9 - 0,0
22.04.2019 05:00:00 14,7 8,0 20 11 27 15 SW 1010,9 15 0,0
22.04.2019 04:00:00 14,8 6,9 19 10 31 17 SW 1011,6 - 0,0
22.04.2019 03:00:00 16,4 5,0 11 6 29 15 S 1012,4 - 0,0
22.04.2019 02:00:00 16,5 3,9 21 11 31 17 SW 1012,8 - 0,0
22.04.2019 01:00:00 16,6 2,9 22 12 33 18 SW 1013,6 - 0,0
22.04.2019 00:00:00 17,7 2,0 21 11 37 20 SSW 1014,1 - 0,0
21.04.2019 23:00:00 17,5 1,9 22 12 33 18 SW 1013,7 - 0,0
21.04.2019 22:00:00 16,9 2,5 20 11 28 15 SW 1014,3 - 0,0
21.04.2019 21:00:00 15,7 3,5 19 10 26 14 SW 1014,6 - 0,0
21.04.2019 20:00:00 16,4 4,4 16 9 21 12 SSW 1014,4 18 0,0
21.04.2019 19:00:00 18,5 5,7 16 8 24 13 S 1014,8 - 0,0
21.04.2019 18:00:00 19,0 5,4 16 9 27 15 S 1015,2 - 0,0
21.04.2019 17:00:00 19,6 5,3 16 9 25 13 SSE 1015,7 18 0,0
21.04.2019 16:00:00 20,7 6,6 11 6 26 14 SSE 1016,4 - 0,0
21.04.2019 15:00:00 20,6 5,8 16 9 28 15 SE 1017,0 - 0,0
21.04.2019 14:00:00 21,0 7,6 13 7 23 13 SE 1017,4 10 0,0
21.04.2019 13:00:00 19,7 9,3 9 5 21 12 ESE 1017,9 - 0,0
21.04.2019 12:00:00 19,5 9,9 10 5 22 12 SSE 1018,5 - 0,0
21.04.2019 11:00:00 19,9 9,5 9 5 24 13 SSE 1018,9 - 0,0
21.04.2019 10:00:00 19,1 8,4 13 7 23 12 SSE 1019,1 - 0,0
21.04.2019 09:00:00 17,3 8,4 11 6 14 8 SW 1019,2 - 0,0
21.04.2019 08:00:00 15,1 4,7 11 6 16 9 SW 1019,5 - 0,0
21.04.2019 07:00:00 15,6 2,7 5 3 17 9 SSW 1019,4 - 0,0
21.04.2019 06:00:00 15,4 2,2 16 9 19 10 NW 1019,4 - 0,0
21.04.2019 05:00:00 15,4 3,2 10 5 15 8 NNW 1019,9 - 0,0
21.04.2019 04:00:00 16,0 2,7 8 4 11 6 NNW 1020,5 - 0,0
21.04.2019 03:00:00 15,8 2,9 8 4 14 8 N 1020,8 - 0,0
21.04.2019 02:00:00 15,1 8,3 11 6 14 7 NNW 1021,4 - 0,0
21.04.2019 01:00:00 14,9 10,5 7 4 16 8 N 1021,6 - 0,0
21.04.2019 00:00:00 15,6 12,2 8 4 18 10 E 1021,5 - 0,0
20.04.2019 23:00:00 17,7 1,2 11 6 19 10 SW 1021,6 - 0,0
20.04.2019 22:00:00 17,0 1,0 15 8 23 13 SW 1021,5 - 0,0
20.04.2019 21:00:00 16,9 1,3 16 9 24 13 SW 1021,4 - 0,0
20.04.2019 20:00:00 16,5 3,2 14 8 24 13 SW 1021,5 - 0,0
20.04.2019 19:00:00 17,4 3,3 18 10 28 15 SW 1021,9 - 0,0
20.04.2019 18:00:00 16,8 11,7 16 9 21 11 SSW 1022,6 - 0,0
20.04.2019 17:00:00 17,0 12,1 8 4 15 8 SSE 1023,1 - 0,0
20.04.2019 16:00:00 17,9 11,9 9 5 20 11 SSE 1023,6 - 0,0
20.04.2019 15:00:00 18,5 12,0 16 9 24 13 E 1024,0 - 0,0
20.04.2019 14:00:00 18,9 11,7 15 8 24 13 ENE 1024,4 - 0,0
20.04.2019 13:00:00 19,0 10,8 15 8 23 12 NE 1024,7 - 0,0
20.04.2019 12:00:00 19,0 10,3 14 7 20 11 NE 1025,0 - 0,0
20.04.2019 11:00:00 19,9 9,7 10 6 18 10 NE 1025,5 - 0,0
20.04.2019 10:00:00 19,2 10,2 10 6 18 10 NE 1025,6 - 0,0
20.04.2019 09:00:00 17,4 9,3 13 7 17 9 NNE 1025,5 - 0,0
20.04.2019 08:00:00 14,3 7,3 10 6 16 8 N 1025,4 20 0,0
20.04.2019 07:00:00 12,2 4,9 13 7 19 11 NNW 1025,0 - 0,0
20.04.2019 06:00:00 12,3 3,2 15 8 21 11 N 1025,0 - 0,0
20.04.2019 05:00:00 12,7 4,6 19 10 22 12 NNW 1025,0 - 0,0
20.04.2019 04:00:00 12,8 3,4 14 8 20 11 N 1025,3 - 0,0
20.04.2019 03:00:00 13,2 2,4 5 3 13 7 N 1025,4 - 0,0
20.04.2019 02:00:00 12,4 2,0 6 3 19 10 W 1025,9 - 0,0
20.04.2019 01:00:00 12,8 4,5 14 8 23 12 N 1026,4 - 0,0
20.04.2019 00:00:00 13,7 4,6 13 7 17 9 NNW 1026,8 - 0,0
19.04.2019 23:00:00 13,7 7,2 13 7 17 9 NNW 1027,0 - 0,0
19.04.2019 22:00:00 13,8 8,4 8 5 16 9 N 1026,9 - 0,0
19.04.2019 21:00:00 14,9 8,4 4 2 11 6 NNE 1026,4 - 0,0
19.04.2019 20:00:00 15,6 10,1 10 5 12 6 SW 1026,0 15 0,0
19.04.2019 19:00:00 17,0 9,9 8 4 15 8 S 1026,0 - 0,0
19.04.2019 18:00:00 18,4 9,5 8 5 17 9 SSE 1026,3 - 0,0
19.04.2019 17:00:00 19,1 8,4 11 6 19 10 SE 1026,5 - 0,0
19.04.2019 16:00:00 19,7 10,4 9 5 20 11 SE 1026,9 - 0,0
19.04.2019 15:00:00 19,7 12,0 11 6 23 12 ESE 1027,4 - 0,0
19.04.2019 14:00:00 20,0 10,7 10 6 22 12 SSE 1027,6 - 0,0
19.04.2019 13:00:00 20,3 12,0 10 5 20 11 ESE 1027,5 - 0,0
19.04.2019 12:00:00 19,1 13,3 12 6 21 11 E 1027,4 - 0,0
19.04.2019 11:00:00 18,2 13,3 14 7 21 11 E 1027,3 - 0,0
19.04.2019 10:00:00 18,6 11,7 8 5 19 11 NE 1026,8 - 0,0
19.04.2019 09:00:00 17,3 10,4 13 7 17 9 NNE 1026,3 - 0,0
19.04.2019 08:00:00 14,2 6,8 12 7 14 8 NNW 1025,9 - 0,0
19.04.2019 07:00:00 14,3 8,5 7 4 10 5 NW 1025,7 - 0,0
19.04.2019 06:00:00 11,3 6,2 8 5 17 9 NW 1025,5 - 0,0
19.04.2019 05:00:00 13,3 5,7 13 7 18 10 N 1024,7 15 0,0
19.04.2019 04:00:00 13,9 3,9 9 5 10 6 NW 1024,2 - 0,0
19.04.2019 03:00:00 12,5 7,2 9 5 16 9 NW 1024,2 - 0,0
19.04.2019 02:00:00 12,9 10,3 10 6 19 10 N 1024,5 - 0,0
19.04.2019 01:00:00 12,7 10,4 14 8 20 11 N 1024,5 - 0,0
19.04.2019 00:00:00 13,7 12,4 18 10 29 15 N 1024,3 - 0,0
18.04.2019 23:00:00 13,0 9,4 18 10 23 12 N 1023,8 - 0,0
18.04.2019 22:00:00 12,7 10,1 13 7 15 8 SW 1023,0 - 0,0
18.04.2019 21:00:00 13,6 12,2 11 6 13 7 SSW 1022,5 - 0,0
18.04.2019 20:00:00 14,7 13,2 10 6 13 7 S 1022,0 15 0,0
18.04.2019 19:00:00 16,2 12,7 8 4 15 8 S 1021,6 - 0,0
18.04.2019 18:00:00 17,6 11,8 8 4 17 9 S 1021,4 - 0,0
18.04.2019 17:00:00 18,6 9,4 8 5 16 9 SSE 1021,6 - 0,0
18.04.2019 16:00:00 19,0 10,0 8 4 21 11 ESE 1021,6 - 0,0
18.04.2019 15:00:00 19,3 10,3 12 7 21 11 ENE 1021,7 - 0,0
18.04.2019 14:00:00 19,7 9,3 11 6 22 12 ENE 1021,9 20 0,0
18.04.2019 13:00:00 19,4 8,7 16 8 24 13 ENE 1022,0 - 0,0
18.04.2019 12:00:00 19,5 5,9 10 5 20 11 ENE 1022,6 - 0,0
18.04.2019 11:00:00 20,4 8,7 9 5 21 11 NE 1022,4 - 0,0
18.04.2019 10:00:00 18,8 9,0 14 7 21 12 NNE 1022,3 - 0,0
18.04.2019 09:00:00 16,8 8,0 13 7 19 11 N 1021,8 - 0,0
18.04.2019 08:00:00 13,6 5,7 9 5 14 8 N 1021,6 - 0,0
18.04.2019 07:00:00 12,7 4,9 11 6 18 10 NNW 1021,2 - 0,0
18.04.2019 06:00:00 13,0 4,7 12 7 19 10 N 1020,9 - 0,0
18.04.2019 05:00:00 12,4 7,5 7 4 9 5 SW 1021,0 18 0,0
18.04.2019 04:00:00 13,8 9,2 8 5 12 6 NW 1021,3 - 0,0
18.04.2019 03:00:00 12,9 6,2 11 6 14 7 NNW 1021,5 - 0,0
18.04.2019 02:00:00 13,7 6,3 4 2 11 6 NNW 1021,8 - 0,0
18.04.2019 01:00:00 13,8 5,7 10 5 16 8 NNW 1021,8 - 0,0
18.04.2019 00:00:00 12,9 4,8 13 7 16 9 NNW 1021,5 - 0,0
17.04.2019 23:00:00 13,0 6,8 11 6 16 9 N 1021,3 - 0,0
17.04.2019 22:00:00 13,7 7,2 12 6 14 7 NNW 1021,0 - 0,0
17.04.2019 21:00:00 13,6 6,7 11 6 12 6 SW 1020,3 - 0,0
17.04.2019 20:00:00 14,7 7,5 6 3 8 5 S 1020,0 25 0,0
17.04.2019 19:00:00 16,4 7,6 4 2 12 7 SE 1019,8 - 0,0
17.04.2019 18:00:00 17,6 9,0 6 4 16 9 SE 1020,2 - 0,0
17.04.2019 17:00:00 18,2 8,7 8 4 16 9 SE 1020,2 25 0,0
17.04.2019 16:00:00 18,4 8,1 10 5 23 12 ESE 1020,4 - 0,0
17.04.2019 15:00:00 18,5 10,3 15 8 23 13 E 1020,6 - 0,0
17.04.2019 14:00:00 18,7 10,0 10 6 22 12 ESE 1020,5 25 0,0
17.04.2019 13:00:00 17,8 10,9 11 6 24 13 ESE 1021,0 - 0,0
17.04.2019 12:00:00 17,2 10,6 13 7 23 13 E 1021,3 - 0,0
17.04.2019 11:00:00 17,1 9,8 14 8 22 12 E 1021,3 - 0,0
17.04.2019 10:00:00 17,5 9,6 8 4 16 9 SE 1020,9 - 0,0
17.04.2019 09:00:00 15,3 9,0 8 4 13 7 S 1020,9 - 0,0
17.04.2019 08:00:00 12,6 7,3 5 3 11 6 S 1020,9 - 0,0
17.04.2019 07:00:00 11,5 7,4 10 5 12 6 SW 1020,6 - 0,0
17.04.2019 06:00:00 11,5 8,5 11 6 12 7 SW 1020,3 - 0,0
17.04.2019 05:00:00 11,7 8,7 9 5 11 6 SW 1020,3 15 0,0
17.04.2019 04:00:00 12,3 7,8 5 3 8 4 WSW 1020,4 - 0,0

tt = Température de l'air
td = dewpoint
ff = Vitesse du vent
fx = gusts
dd = Direction du vent
ppp = reduced air pressure
vv = visibility
rr = Quantités de précipitations

stations d'obs. à proximité